Hourly Weather Kerns

Today, 5 July, Sunday

Time Temperature Precipitation Wind Pressure Humidity
00:00 +17°C° 0 mm 4 mps 763 mmHg 91%
01:00 +17°C° 0 mm 4 mps 763 mmHg 91%
02:00 +17°C° 0 mm 4 mps 763 mmHg 92%
03:00 +17°C° 0 mm 4 mps 762 mmHg 93%
04:00 +17°C° 0 mm 4 mps 762 mmHg 93%
05:00 +17°C° 0 mm 4 mps 762 mmHg 93%
06:00 +16°C° 0 mm 5 mps 763 mmHg 93%
07:00 +16°C° 0 mm 5 mps 763 mmHg 93%
08:00 +19°C° 0.1 mm 6 mps 763 mmHg 84%
09:00 +21°C° 0.1 mm 6 mps 763 mmHg 75%
10:00 +24°C° 0 mm 7 mps 764 mmHg 66%
11:00 +24°C° 0 mm 7 mps 763 mmHg 62%
12:00 +26°C° 0 mm 7 mps 763 mmHg 58%
13:00 +26°C° 0 mm 7 mps 762 mmHg 54%
14:00 +26°C° 0 mm 7 mps 762 mmHg 55%
15:00 +24°C° 0 mm 7 mps 762 mmHg 56%
16:00 +24°C° 0 mm 6 mps 762 mmHg 57%
17:00 +21°C° 0 mm 6 mps 762 mmHg 66%
18:00 +19°C° 0 mm 6 mps 763 mmHg 75%
19:00 +16°C° 0 mm 5 mps 763 mmHg 84%
20:00 +15°C° 0 mm 5 mps 763 mmHg 87%
21:00 +15°C° 0 mm 5 mps 763 mmHg 89%
22:00 +14°C° 0 mm 4 mps 763 mmHg 92%
23:00 +15°C° 0 mm 4 mps 763 mmHg 91%

Tomorrow, 6 July, Monday

Time Temperature Precipitation Wind Pressure Humidity
00:00 +15°C° 0 mm 4 mps 763 mmHg 90%
01:00 +15°C° 0 mm 4 mps 763 mmHg 88%
02:00 +15°C° 0 mm 5 mps 763 mmHg 88%
03:00 +15°C° 0 mm 5 mps 763 mmHg 87%
04:00 +15°C° 0 mm 5 mps 763 mmHg 86%
05:00 +15°C° 0 mm 5 mps 763 mmHg 87%
06:00 +15°C° 0 mm 5 mps 763 mmHg 87%
07:00 +15°C° 0 mm 5 mps 764 mmHg 87%
08:00 +17°C° 0 mm 5 mps 764 mmHg 78%
09:00 +20°C° 0 mm 6 mps 764 mmHg 70%
10:00 +22°C° 0 mm 6 mps 764 mmHg 61%
11:00 +23°C° 0 mm 6 mps 764 mmHg 60%
12:00 +24°C° 0 mm 6 mps 763 mmHg 58%
13:00 +26°C° 0 mm 7 mps 762 mmHg 57%
14:00 +24°C° 0 mm 6 mps 762 mmHg 59%
15:00 +24°C° 0 mm 6 mps 762 mmHg 61%
16:00 +24°C° 0 mm 6 mps 762 mmHg 63%
17:00 +22°C° 0 mm 6 mps 762 mmHg 71%
18:00 +21°C° 0 mm 6 mps 763 mmHg 78%
19:00 +19°C° 0 mm 5 mps 763 mmHg 86%
20:00 +19°C° 0.1 mm 5 mps 764 mmHg 88%
21:00 +19°C° 0.1 mm 5 mps 764 mmHg 90%
22:00 +17°C° 0.1 mm 5 mps 764 mmHg 93%
23:00 +18°C° 0.1 mm 4 mps 764 mmHg 94%

Day after tomorrow, 7 July, Tuesday

Time Temperature Precipitation Wind Pressure Humidity
00:00 +18°C° 0.1 mm 4 mps 763 mmHg 96%
01:00 +18°C° 0.1 mm 4 mps 763 mmHg 98%
02:00 +19°C° 0.2 mm 4 mps 763 mmHg 98%
03:00 +19°C° 0.2 mm 5 mps 762 mmHg 98%
04:00 +20°C° 0.2 mm 5 mps 762 mmHg 97%
05:00 +20°C° 0.1 mm 5 mps 762 mmHg 97%
06:00 +20°C° 0.1 mm 5 mps 763 mmHg 97%
07:00 +20°C° 0.1 mm 5 mps 763 mmHg 97%
08:00 +21°C° 0.1 mm 6 mps 763 mmHg 91%
09:00 +22°C° 0.1 mm 6 mps 763 mmHg 84%
10:00 +23°C° 0.1 mm 7 mps 764 mmHg 78%
11:00 +24°C° 0.1 mm 7 mps 763 mmHg 74%
12:00 +26°C° 0.1 mm 7 mps 763 mmHg 70%
13:00 +27°C° 0.1 mm 6 mps 762 mmHg 66%
14:00 +26°C° 0.2 mm 6 mps 762 mmHg 68%
15:00 +26°C° 0.2 mm 6 mps 762 mmHg 71%
16:00 +24°C° 0.2 mm 6 mps 762 mmHg 74%
17:00 +23°C° 0.1 mm 6 mps 762 mmHg 81%
18:00 +21°C° 0.1 mm 6 mps 762 mmHg 87%
19:00 +20°C° 0.1 mm 5 mps 762 mmHg 94%
20:00 +20°C° 0.1 mm 5 mps 763 mmHg 95%
21:00 +20°C° 0.1 mm 5 mps 763 mmHg 96%
22:00 +19°C° 0.1 mm 5 mps 763 mmHg 97%
23:00 +20°C° 0.2 mm 6 mps 763 mmHg 97%

8 July, Wednesday

Time Temperature Precipitation Wind Pressure Humidity
00:00 +20°C° 0.2 mm 6 mps 763 mmHg 97%
01:00 +20°C° 0.2 mm 6 mps 762 mmHg 97%
02:00 +20°C° 0.2 mm 6 mps 762 mmHg 97%
03:00 +19°C° 0.2 mm 6 mps 762 mmHg 97%
04:00 +19°C° 0.2 mm 5 mps 761 mmHg 97%
05:00 +19°C° 0.2 mm 5 mps 762 mmHg 97%
06:00 +20°C° 0.2 mm 5 mps 762 mmHg 97%
07:00 +20°C° 0.2 mm 5 mps 762 mmHg 97%
08:00 +21°C° 0.1 mm 5 mps 762 mmHg 91%
09:00 +23°C° 0.1 mm 6 mps 762 mmHg 85%
10:00 +24°C° 0.1 mm 6 mps 762 mmHg 78%
11:00 +26°C° 0 mm 6 mps 762 mmHg 72%
12:00 +27°C° 0 mm 6 mps 761 mmHg 66%
13:00 +28°C° 0 mm 6 mps 761 mmHg 59%
14:00 +27°C° 0 mm 6 mps 761 mmHg 61%
15:00 +27°C° 0 mm 6 mps 761 mmHg 62%
16:00 +26°C° 0 mm 6 mps 760 mmHg 63%
17:00 +24°C° 0.1 mm 6 mps 761 mmHg 72%
18:00 +22°C° 0.1 mm 5 mps 761 mmHg 82%
19:00 +21°C° 0.1 mm 5 mps 761 mmHg 91%
20:00 +20°C° 0.1 mm 5 mps 762 mmHg 92%
21:00 +20°C° 0.1 mm 6 mps 762 mmHg 94%
22:00 +20°C° 0.1 mm 6 mps 762 mmHg 95%
23:00 +20°C° 0.1 mm 6 mps 762 mmHg 95%

9 July, Thursday

Time Temperature Precipitation Wind Pressure Humidity
00:00 +20°C° 0.1 mm 5 mps 762 mmHg 96%
01:00 +20°C° 0.1 mm 5 mps 761 mmHg 97%
02:00 +20°C° 0.4 mm 5 mps 761 mmHg 97%
03:00 +20°C° 0.4 mm 5 mps 761 mmHg 97%
04:00 +20°C° 0.4 mm 5 mps 761 mmHg 97%
05:00 +21°C° 0.2 mm 5 mps 761 mmHg 97%
06:00 +21°C° 0.2 mm 5 mps 761 mmHg 97%
07:00 +21°C° 0.2 mm 4 mps 762 mmHg 97%
08:00 +22°C° 0.3 mm 5 mps 762 mmHg 93%
09:00 +23°C° 0.3 mm 5 mps 762 mmHg 90%
10:00 +24°C° 0.3 mm 6 mps 762 mmHg 86%
11:00 +24°C° 0.4 mm 6 mps 762 mmHg 85%
12:00 +24°C° 0.4 mm 6 mps 761 mmHg 84%
13:00 +26°C° 0.4 mm 6 mps 761 mmHg 83%
14:00 +24°C° 0.4 mm 6 mps 761 mmHg 84%
15:00 +24°C° 0.4 mm 6 mps 760 mmHg 84%
16:00 +24°C° 0.4 mm 6 mps 760 mmHg 85%
17:00 +23°C° 0.3 mm 6 mps 760 mmHg 89%
18:00 +23°C° 0.3 mm 5 mps 761 mmHg 92%
19:00 +22°C° 0.3 mm 5 mps 761 mmHg 96%
20:00 +22°C° 0.4 mm 5 mps 762 mmHg 96%
21:00 +22°C° 0.4 mm 6 mps 762 mmHg 96%
22:00 +22°C° 0.4 mm 6 mps 762 mmHg 97%
23:00 +22°C° 0.3 mm 6 mps 762 mmHg 96%

10 July, Friday

Time Temperature Precipitation Wind Pressure Humidity
00:00 +22°C° 0.3 mm 6 mps 762 mmHg 96%
01:00 +22°C° 0.3 mm 6 mps 762 mmHg 96%
02:00 +21°C° 0.1 mm 6 mps 761 mmHg 96%
03:00 +21°C° 0.1 mm 6 mps 761 mmHg 96%
04:00 +20°C° 0.1 mm 6 mps 761 mmHg 96%
05:00 +20°C° 0.1 mm 5 mps 761 mmHg 96%
06:00 +20°C° 0.1 mm 5 mps 761 mmHg 97%
07:00 +20°C° 0.1 mm 5 mps 762 mmHg 97%
08:00 +21°C° 0.1 mm 5 mps 762 mmHg 92%
09:00 +23°C° 0.1 mm 6 mps 762 mmHg 86%
10:00 +24°C° 0.1 mm 6 mps 762 mmHg 80%
11:00 +26°C° 0 mm 6 mps 762 mmHg 76%
12:00 +26°C° 0 mm 6 mps 761 mmHg 72%
13:00 +27°C° 0 mm 6 mps 761 mmHg 68%
14:00 +27°C° 0.1 mm 6 mps 761 mmHg 68%
15:00 +26°C° 0.1 mm 6 mps 760 mmHg 68%
16:00 +26°C° 0.1 mm 6 mps 760 mmHg 69%
17:00 +25°C° 0 mm 5 mps 761 mmHg 73%
18:00 +23°C° 0 mm 5 mps 761 mmHg 76%
19:00 +22°C° 0 mm 5 mps 762 mmHg 80%
20:00 +22°C° 0 mm 5 mps 762 mmHg 82%
21:00 +22°C° 0 mm 4 mps 762 mmHg 84%
22:00 +22°C° 0 mm 4 mps 762 mmHg 85%
23:00 +21°C° 0 mm 4 mps 762 mmHg 88%
Show more